Overview Statistics Trail Chart Weather Telemetry Raw packets
 

This is the latest recevied weather packets stored in our database for station/object W4SNA-3. If no packets are shown the sender has not sent any weather packets the latest 10 day(s).

<< 89 90 91 92 93 94 95 >>
Time Temp. Humidity Pressure Rain* Wind** Luminosity Snow
1787935072 25.56° C 74% 1019.8 hPa 0 mm - - -
1787934781 25.56° C 74% 1019.8 hPa 0 mm - - -
1787934471 25.56° C 73% 1019.7 hPa 0 mm - - -
1787934177 25.56° C 71% 1019.6 hPa 0 mm - - -
1787933847 26.11° C 71% 1019.7 hPa 0 mm - - -
1787933547 26.67° C 69% 1019.6 hPa 0 mm - - -
1787933247 26.67° C 69% 1019.6 hPa 0 mm - - -
1787932947 26.67° C 73% 1019.5 hPa 0 mm - - -
1787932672 26.67° C 73% 1019.5 hPa 0 mm - - -
1787932373 26.67° C 72% 1019.5 hPa 0 mm - - -
1787931800 26.67° C 71% 1019.4 hPa 0 mm - - -
1787931501 26.67° C 73% 1019.4 hPa 0 mm - - -
1787931196 26.67° C 74% 1019.5 hPa 0 mm - - -
1787930920 26.67° C 73% 1019.5 hPa 0 mm - - -
1787930594 26.67° C 72% 1019.6 hPa 0 mm - - -
1787930294 26.67° C 73% 1019.6 hPa 0 mm - - -
1787930008 26.67° C 75% 1019.6 hPa 0 mm - - -
1787929699 26.11° C 74% 1019.5 hPa 0 mm - - -
1787929394 26.11° C 75% 1019.6 hPa 0 mm - - -
1787929094 26.11° C 73% 1019.5 hPa 0 mm - - -
1787928796 26.11° C 78% 1019.5 hPa 0 mm - - -
1787928494 26.11° C 77% 1019.5 hPa 0 mm - - -
1787928194 25.56° C 76% 1019.5 hPa 0 mm - - -
1787927894 25.56° C 79% 1019.5 hPa 0 mm - - -
1787927594 25° C 79% 1019.5 hPa 0 mm - - -

* Rain latest hour (hover to see other rain measurements)
** Current wind speed in m/s (hover to see current wind gust speed)